Terminal Aerodrome Forecast
Issued by NWS

Home | Current Version | Previous Version | Text Only | Print | Product List | Glossary Off
Versions: 1 2 3 4 5 6 7 8 9 10 11 12 13 14 15 16 17 18 19

550
FTUS43 KUNR 200800 AAA
TAFGCC
TAF AMD
KGCC 200800Z 2008/2106 28012KT P6SM BKN060
      TEMPO 2008/2009 -SHRA BKN025
     FM201100 23015KT P6SM SCT200=

USA.gov is the U.S. government's official web portal to all federal, state and local government web resources and services.